Simultaneous Nadir Overpasses (SNOs) Predictions

Prediction of SNOs between LANDSAT-8 and METOP-B Satellite Orbit:

Table of predicted SNOs for the next 14.0 days since TLE Epoch: 7/19/2014
Index Date (LANDSAT-8) Time (LANDSAT-8) Lat,Lon (LANDSAT-8) SZA (LANDSAT-8 ) Date (METOP-B) Time (METOP-B) Lat,Lon (METOP-B) SZA (METOP-B ) Distance(km) Time Diff (sec)
1 07/19/2014 08:20:43 81.14, 95.01 62.33 07/19/2014 08:19:41 81.14, 95.03 62.31 0.70 62
2 07/19/2014 09:10:08 -81.18, -96.67 117.57 07/19/2014 09:10:19 -81.18, -96.64 117.57 0.74 11
3 07/22/2014 03:54:57 81.16, 161.87 62.92 07/22/2014 03:53:59 81.16, 162.01 62.90 2.43 58
4 07/22/2014 04:44:23 -81.18, -30.16 117.03 07/22/2014 04:44:38 -81.18, -29.97 117.01 3.23 15
5 07/24/2014 23:29:12 81.14,-132.08 63.43 07/24/2014 23:28:19 81.14,-132.17 63.40 1.54 53
6
